Change the Weather History Date:

Tuesday, July 9, 2013

  Actual Average (KLBT) Record (KLBT)
Temperature  
Mean Temperature 80 °F 81 °F  
Max Temperature 88 °F 91 °F 99 °F (2012)
Min Temperature 73 °F 71 °F 58 °F (2006)
Degree Days  
Heating Degree Days 0 0  
Month to date heating degree days 0  
Since 1 June heating degree days 0  
Since 1 July heating degree days 0  
Cooling Degree Days 16 16  
Month to date cooling degree days 144  
Year to date cooling degree days 782  
Since 1 June cooling degree days 532  
Growing Degree Days 30 (Base 50)    
Moisture  
Dew Point 72 °F    
Average Humidity 76    
Maximum Humidity 95    
Minimum Humidity 59    
Precipitation  
Precipitation 0.01 in 0.15 in 0.41 in (2012)
Month to date precipitation 1.27  
Year to date precipitation 20.68  
Sea Level Pressure  
Sea Level Pressure 30.15 in    
Wind  
Wind Speed 4 mph (South)    
Max Wind Speed 12 mph    
Max Gust Speed 16 mph    
Visibility 10 miles    
Events Rain    
T = Trace of Precipitation, MM = Missing Value Source: NWS Daily Summary

Daily Weather History Graph

Daily Weather History Graph

Search for Another Location

Airport or City:

Trip Planner

Search our weather history database for the weather conditions in past years. The results will help you decide how hot, cold, wet, or windy it might be!

Date:

Astronomy

Jul. 09, 2013 Rise Set
Actual Time 6:10 AM EDT 8:29 PM EDT
Civil Twilight 5:41 AM EDT 8:58 PM EDT
Nautical Twilight 5:06 AM EDT 9:33 PM EDT
Astronomical Twilight 4:27 AM EDT 10:12 PM EDT
Moon 7:27 AM EDT (7/9) 9:12 PM EDT (7/9)
Length of Visible Light 15h 16m
Length of Day
14h 18m
New Moon, 2% of the Moon is Illuminated
Jul 9
New Moon
Jul 15
First Quarter
Jul 22
Full
Jul 29
Last Quarter
Aug 6
New

Hourly Weather History & Observations

Time (EDT) Temp. Heat Index Dew Point Humidity Pressure Visibility Wind Dir Wind Speed Gust Speed Precip Events Conditions
12:15 AM 76.1 °F - 71.6 °F 86% 30.18 in 10.0 mi SSW 4.6 mph - N/A   Overcast
12:35 AM 75.7 °F - 71.4 °F 86% 30.18 in 10.0 mi South 4.6 mph - N/A   Scattered Clouds
12:55 AM 76.3 °F - 71.2 °F 84% 30.18 in 10.0 mi SSW 4.6 mph - N/A   Scattered Clouds
1:15 AM 77.0 °F - 71.1 °F 82% 30.18 in 10.0 mi South 4.6 mph - N/A   Mostly Cloudy
1:35 AM 77.2 °F - 70.9 °F 81% 30.18 in 10.0 mi South 4.6 mph - N/A   Overcast
1:55 AM 77.2 °F - 71.1 °F 81% 30.17 in 10.0 mi South 4.6 mph - N/A   Overcast
2:15 AM 76.8 °F - 70.9 °F 82% 30.17 in 10.0 mi SW 3.5 mph - N/A   Mostly Cloudy
2:35 AM 76.1 °F - 71.1 °F 84% 30.17 in 10.0 mi Calm Calm - N/A   Mostly Cloudy
2:55 AM 75.7 °F - 70.9 °F 85% 30.16 in 10.0 mi Calm Calm - N/A   Mostly Cloudy
3:15 AM 76.1 °F - 70.9 °F 84% 30.16 in 10.0 mi Calm Calm - N/A   Overcast
3:35 AM 76.1 °F - 70.9 °F 84% 30.16 in 10.0 mi Calm Calm - N/A   Overcast
3:55 AM 75.6 °F - 71.8 °F 88% 30.16 in 5.0 mi Calm Calm - N/A Rain Light Rain
4:15 AM 75.2 °F - 71.8 °F 89% 30.16 in 10.0 mi SW 3.5 mph - 0.01 in   Mostly Cloudy
4:35 AM 74.3 °F - 71.6 °F 91% 30.16 in 10.0 mi Calm Calm - 0.01 in   Scattered Clouds
4:55 AM 73.6 °F - 71.6 °F 93% 30.16 in 10.0 mi Calm Calm - 0.01 in   Clear
5:15 AM 73.4 °F - 71.8 °F 95% 30.16 in 10.0 mi Calm Calm - N/A   Scattered Clouds
5:35 AM 73.8 °F - 71.8 °F 93% 30.16 in 10.0 mi SW 3.5 mph - N/A   Mostly Cloudy
5:55 AM 74.3 °F - 71.6 °F 91% 30.16 in 10.0 mi Calm Calm - N/A   Overcast
6:15 AM 74.5 °F - 71.6 °F 91% 30.16 in 10.0 mi Calm Calm - N/A   Overcast
6:35 AM 74.3 °F - 71.6 °F 91% 30.17 in 10.0 mi Calm Calm - N/A   Overcast
6:55 AM 74.3 °F - 72.0 °F 92% 30.17 in 10.0 mi Calm Calm - N/A   Overcast
7:15 AM 74.3 °F - 71.6 °F 91% 30.17 in 10.0 mi Calm Calm - N/A   Mostly Cloudy
7:35 AM 76.1 °F - 72.1 °F 87% 30.17 in 10.0 mi SSW 3.5 mph - N/A   Scattered Clouds
7:55 AM 77.4 °F - 72.3 °F 84% 30.18 in 10.0 mi SW 3.5 mph - N/A   Clear
8:15 AM 77.9 °F - 72.9 °F 84% 30.18 in 10.0 mi SW 4.6 mph - N/A   Clear
8:35 AM 79.5 °F - 73.0 °F 80% 30.18 in 10.0 mi South 8.1 mph - N/A   Clear
8:55 AM 80.8 °F 85.4 °F 73.0 °F 77% 30.19 in 10.0 mi SW 5.8 mph - N/A   Scattered Clouds
9:15 AM 81.5 °F 86.1 °F 72.0 °F 73% 30.19 in 10.0 mi SSW 6.9 mph - N/A   Scattered Clouds
9:35 AM 82.4 °F 87.4 °F 72.0 °F 71% 30.19 in 10.0 mi SW 4.6 mph - N/A   Clear
9:55 AM 82.6 °F 87.6 °F 71.8 °F 70% 30.19 in 10.0 mi SSW 8.1 mph - N/A   Clear
10:15 AM 83.1 °F 88.4 °F 72.1 °F 69% 30.19 in 10.0 mi WSW 5.8 mph - N/A   Clear
10:35 AM 83.7 °F 88.9 °F 71.8 °F 67% 30.19 in 10.0 mi SSW 5.8 mph - N/A   Clear
10:55 AM 84.4 °F 90.0 °F 72.0 °F 66% 30.19 in 10.0 mi South 8.1 mph - N/A   Scattered Clouds
11:15 AM 84.7 °F 89.7 °F 71.1 °F 63% 30.19 in 10.0 mi South 5.8 mph - N/A   Scattered Clouds
11:35 AM 85.5 °F 91.1 °F 71.4 °F 63% 30.19 in 10.0 mi South 5.8 mph - N/A   Scattered Clouds
11:55 AM 85.3 °F 90.8 °F 71.6 °F 63% 30.19 in 10.0 mi South 6.9 mph - N/A   Mostly Cloudy
12:15 PM 86.5 °F 92.5 °F 71.6 °F 61% 30.18 in 10.0 mi SSW 9.2 mph - N/A   Mostly Cloudy
12:35 PM 86.5 °F 92.5 °F 71.4 °F 61% 30.18 in 10.0 mi SSW 8.1 mph - N/A   Mostly Cloudy
12:55 PM 87.1 °F 92.8 °F 71.2 °F 59% 30.18 in 10.0 mi SSW 9.2 mph - N/A   Scattered Clouds
1:15 PM 86.7 °F 92.1 °F 71.1 °F 59% 30.17 in 10.0 mi South 8.1 mph - N/A   Mostly Cloudy
1:35 PM 86.9 °F 92.9 °F 71.4 °F 60% 30.16 in 10.0 mi South 8.1 mph - N/A   Mostly Cloudy
1:55 PM 88.0 °F 95.1 °F 72.3 °F 60% 30.16 in 10.0 mi SSW 9.2 mph - N/A   Mostly Cloudy
2:15 PM 87.4 °F 94.4 °F 72.3 °F 61% 30.15 in 10.0 mi SSE 8.1 mph - N/A   Scattered Clouds
2:35 PM 87.6 °F 93.9 °F 71.8 °F 59% 30.15 in 10.0 mi SSW 11.5 mph 16.1 mph N/A   Scattered Clouds
2:55 PM 88.0 °F 94.7 °F 72.0 °F 59% 30.14 in 10.0 mi South 9.2 mph - N/A   Scattered Clouds
3:15 PM 87.1 °F 92.8 °F 71.2 °F 59% 30.13 in 10.0 mi South 10.4 mph - N/A   Scattered Clouds
3:35 PM 86.2 °F 92.2 °F 71.8 °F 62% 30.13 in 10.0 mi South 6.9 mph - N/A   Clear
3:55 PM 86.0 °F 93.4 °F 73.4 °F 66% 30.12 in 10.0 mi SW 3.5 mph - N/A   Scattered Clouds
4:15 PM 85.6 °F 93.0 °F 73.6 °F 67% 30.12 in 10.0 mi SSW 4.6 mph - N/A   Scattered Clouds
4:35 PM 86.0 °F 91.1 °F 70.9 °F 60% 30.12 in 10.0 mi SSW 5.8 mph - N/A   Clear
4:55 PM 86.0 °F 92.6 °F 72.7 °F 64% 30.12 in 10.0 mi SSE 8.1 mph - N/A   Clear
5:15 PM 85.6 °F 92.6 °F 73.2 °F 66% 30.12 in 10.0 mi South 9.2 mph - N/A   Clear
5:35 PM 85.8 °F 93.4 °F 73.6 °F 67% 30.11 in 10.0 mi SSE 9.2 mph - N/A   Clear
5:55 PM 84.6 °F 91.4 °F 73.4 °F 69% 30.11 in 10.0 mi SSE 9.2 mph - N/A   Scattered Clouds
6:15 PM 83.5 °F 89.4 °F 72.9 °F 70% 30.10 in 10.0 mi SSE 9.2 mph - N/A   Clear
6:35 PM 82.9 °F 88.5 °F 72.7 °F 71% 30.10 in 10.0 mi SSE 8.1 mph - N/A   Clear
6:55 PM 82.4 °F 87.4 °F 72.3 °F 71% 30.11 in 10.0 mi South 5.8 mph - N/A   Clear
7:15 PM 81.9 °F 86.6 °F 72.0 °F 72% 30.11 in 10.0 mi South 6.9 mph - N/A   Clear
7:35 PM 81.5 °F 86.3 °F 72.5 °F 74% 30.12 in 10.0 mi South 3.5 mph - N/A   Clear
7:55 PM 81.0 °F 85.4 °F 72.5 °F 75% 30.12 in 10.0 mi South 5.8 mph - N/A   Clear
8:15 PM 80.4 °F 84.7 °F 72.7 °F 77% 30.12 in 10.0 mi South 5.8 mph - N/A   Clear
8:35 PM 80.1 °F 84.2 °F 72.9 °F 79% 30.12 in 10.0 mi SSE 6.9 mph - N/A   Clear
8:55 PM 79.7 °F - 73.0 °F 80% 30.13 in 10.0 mi South 4.6 mph - N/A   Clear
9:15 PM 79.2 °F - 73.0 °F 81% 30.13 in 10.0 mi SSE 5.8 mph - N/A   Clear
9:35 PM 79.0 °F - 73.0 °F 82% 30.13 in 10.0 mi South 5.8 mph - N/A   Clear
9:55 PM 78.8 °F - 72.9 °F 82% 30.14 in 10.0 mi South 4.6 mph - N/A   Clear
10:15 PM 78.3 °F - 73.0 °F 84% 30.14 in 10.0 mi South 3.5 mph - N/A   Clear
10:35 PM 78.1 °F - 73.4 °F 85% 30.14 in 10.0 mi Calm Calm - N/A   Scattered Clouds
10:55 PM 77.5 °F - 73.2 °F 86% 30.14 in 10.0 mi Calm Calm - N/A   Mostly Cloudy
11:15 PM 77.2 °F - 73.4 °F 88% 30.14 in 10.0 mi Calm Calm - N/A   Scattered Clouds
11:35 PM 77.0 °F - 73.4 °F 89% 30.14 in 10.0 mi SSW 3.5 mph - N/A   Clear
11:55 PM 77.2 °F - 73.4 °F 88% 30.14 in 10.0 mi SSW 3.5 mph - N/A   Clear